APRIZESAT 1

Last updated on Sun Jun 21 2026 00:03:22 GMT+0000 (Coordinated Universal Time)

1 28372U 04025G 26170.98264002 .00000172 00000+0 54385-4 0 9998 2 28372 98.6302 181.7843 0045256 145.4838 214.9309 14.51778242162311
UTC large
Height (km)
Speed (km/s)
/
Latitude / Longitude
Inclination (degrees)
Orbital Period (minutes)
Azimuth
Elevation
Range (km)
Doppler Factor

Next 0 passes for location: London (51.5072 / 0.1276)

No passes found over London.
APRIZESAT 1